Location: Frysztak
(49.8373°N, 21.6089°E)
Time: 23:11:19
(UTC+02:00)

ISS - Visible Passes

Search period start: 22 September 2018 00:00
Search period end: 02 October 2018 00:00
Orbit: 403 x 408 km, 51.6° (Epoch: 23 September)

Date Brightness Start Highest point End Pass type
(mag) Time Alt. Az. Time Alt. Az. Time Alt. Az.
22 Sep -1.8 20:27:43 10° SSW 20:28:53 18° SSW 20:28:53 18° SSW visible
23 Sep -2.3 19:36:28 10° SSW 19:38:58 20° SE 19:39:38 19° SE visible
23 Sep -1.0 21:11:50 10° WSW 21:12:20 14° WSW 21:12:20 14° WSW visible
24 Sep -3.5 20:20:01 10° SW 20:22:54 52° S 20:22:54 52° S visible
25 Sep -3.1 19:28:23 10° SW 19:31:27 37° SSE 19:33:17 20° E visible
25 Sep -1.6 21:04:33 10° W 21:05:59 24° W 21:05:59 24° W visible
26 Sep -3.9 20:12:36 10° WSW 20:15:55 89° SE 20:16:15 70° ENE visible
27 Sep -3.8 19:20:43 10° WSW 19:24:00 65° SSE 19:26:26 17° ENE visible
27 Sep -1.8 20:57:17 10° W 20:59:07 29° WNW 20:59:07 29° WNW visible
28 Sep -3.6 20:05:16 10° W 20:08:34 68° N 20:09:12 51° NE visible
29 Sep -3.8 19:13:16 10° WSW 19:16:35 83° NNW 19:19:14 15° ENE visible
29 Sep -2.0 20:49:58 10° WNW 20:51:54 31° WNW 20:51:54 31° WNW visible
30 Sep -3.5 19:57:57 10° W 20:01:14 61° N 20:01:54 47° NE visible
30 Sep -0.3 21:34:33 10° WNW 21:34:34 10° WNW 21:34:34 10° WNW visible
01 Oct -3.6 19:05:53 10° W 19:09:11 65° N 19:11:53 14° ENE visible
01 Oct -2.1 20:42:33 10° WNW 20:44:32 33° WNW 20:44:32 33° WNW visible
